FDX1650 EDDK-EDDM

Flight info

Callsign FDX1650
Flight time 0h 49m
Altitude 35000
Route KUMIK1R KUMIK Y854 BOMBI T104 ROKIL ROKIL1B
Aircraft B77L/H-SDE1E2E3FGHIJ2J3J4J5M1RWXY/LB1D1

Departure

Time 2026-05-07 15:04
Airport Cologne Bonn Airport (EDDK)

Arrival

Time 2026-05-07 15:53
Airport Munich Airport (EDDM)
Time Latitude Longitude Altitude Speed Heading
2026-05-07 14:42 50.87584 7.12765 237 ft 0 kts 227°
2026-05-07 14:54 50.87589 7.12775 237 ft 4 kts 227°
2026-05-07 14:54 50.87607 7.12806 237 ft 4 kts 227°
2026-05-07 14:54 50.87621 7.12831 237 ft 4 kts 225°
2026-05-07 14:54 50.87642 7.12854 237 ft 4 kts 188°
2026-05-07 14:55 50.87666 7.12848 237 ft 4 kts 140°
2026-05-07 14:55 50.87685 7.12821 237 ft 3 kts 137°
2026-05-07 14:55 50.87687 7.12817 237 ft 0 kts 137°
2026-05-07 14:57 50.87687 7.12818 237 ft 1 kts 137°
2026-05-07 14:57 50.87642 7.12883 237 ft 18 kts 137°
2026-05-07 14:57 50.87540 7.13029 237 ft 20 kts 137°
2026-05-07 14:57 50.87433 7.13185 237 ft 21 kts 137°
2026-05-07 14:58 50.87321 7.13347 237 ft 23 kts 137°
2026-05-07 14:58 50.87204 7.13516 240 ft 23 kts 137°
2026-05-07 14:58 50.87087 7.13685 245 ft 23 kts 137°
2026-05-07 14:58 50.86971 7.13856 250 ft 23 kts 137°
2026-05-07 14:59 50.86854 7.14025 260 ft 23 kts 137°
2026-05-07 14:59 50.86760 7.14131 260 ft 15 kts 167°
2026-05-07 14:59 50.86673 7.14225 264 ft 15 kts 137°
2026-05-07 14:59 50.86563 7.14385 266 ft 31 kts 137°
2026-05-07 15:00 50.86420 7.14593 280 ft 28 kts 137°
2026-05-07 15:00 50.86278 7.14798 284 ft 28 kts 138°
2026-05-07 15:00 50.86135 7.15004 296 ft 28 kts 137°
2026-05-07 15:00 50.85993 7.15210 300 ft 28 kts 137°
2026-05-07 15:01 50.85851 7.15417 304 ft 28 kts 138°
2026-05-07 15:01 50.85709 7.15623 308 ft 28 kts 137°
2026-05-07 15:01 50.85566 7.15829 312 ft 27 kts 137°
2026-05-07 15:01 50.85457 7.15987 312 ft 15 kts 137°
2026-05-07 15:02 50.85388 7.16086 314 ft 14 kts 136°
2026-05-07 15:02 50.85339 7.16224 314 ft 15 kts 103°
2026-05-07 15:02 50.85358 7.16393 314 ft 17 kts 62°
2026-05-07 15:02 50.85447 7.16505 313 ft 17 kts 18°
2026-05-07 15:03 50.85565 7.16494 314 ft 17 kts 331°
2026-05-07 15:03 50.85746 7.16245 315 ft 60 kts 317°
2026-05-07 15:03 50.86261 7.15492 299 ft 139 kts 317°
2026-05-07 15:03 50.87064 7.14329 796 ft 158 kts 317°
2026-05-07 15:04 50.87902 7.13133 1732 ft 170 kts 320°
2026-05-07 15:04 50.88878 7.11795 2311 ft 201 kts 324°
2026-05-07 15:04 50.90225 7.11152 3203 ft 208 kts
2026-05-07 15:04 50.91554 7.11965 4189 ft 208 kts 27°
2026-05-07 15:05 50.92819 7.13113 5079 ft 214 kts 31°
2026-05-07 15:05 50.93866 7.14906 5846 ft 231 kts 60°
2026-05-07 15:05 50.94623 7.17310 6222 ft 264 kts 63°
2026-05-07 15:05 50.95454 7.20001 7105 ft 277 kts 63°
2026-05-07 15:06 50.96310 7.22748 8276 ft 279 kts 63°
2026-05-07 15:06 50.97181 7.25528 9389 ft 285 kts 63°
2026-05-07 15:06 50.98080 7.28383 10388 ft 294 kts 62°
2026-05-07 15:06 50.99032 7.31399 10989 ft 320 kts 63°
2026-05-07 15:07 51.00082 7.34730 11420 ft 350 kts 63°
2026-05-07 15:07 51.01178 7.38247 12498 ft 355 kts 65°
2026-05-07 15:07 51.01793 7.42063 13591 ft 364 kts 87°
2026-05-07 15:07 51.01444 7.46010 14676 ft 367 kts 107°
2026-05-07 15:08 51.00665 7.49922 15683 ft 375 kts 108°
2026-05-07 15:08 50.99856 7.53902 16820 ft 382 kts 108°
2026-05-07 15:08 50.99033 7.57966 17983 ft 388 kts 108°
2026-05-07 15:08 50.98205 7.62090 19006 ft 395 kts 108°
2026-05-07 15:09 50.97371 7.66281 19987 ft 400 kts 108°
2026-05-07 15:09 50.96532 7.70527 21017 ft 405 kts 108°
2026-05-07 15:09 50.95683 7.74826 21964 ft 412 kts 108°
2026-05-07 15:09 50.94828 7.79141 22874 ft 419 kts 108°
2026-05-07 15:10 50.93808 7.83493 23774 ft 423 kts 118°
2026-05-07 15:10 50.92220 7.87474 24579 ft 427 kts 126°
2026-05-07 15:10 50.90481 7.91324 25393 ft 432 kts 126°
2026-05-07 15:10 50.88746 7.95258 26180 ft 437 kts 125°
2026-05-07 15:11 50.87032 7.99293 26968 ft 443 kts 124°
2026-05-07 15:11 50.85346 8.03329 27767 ft 447 kts 124°
2026-05-07 15:11 50.83511 8.07323 28538 ft 451 kts 133°
2026-05-07 15:11 50.81078 8.10443 29307 ft 450 kts 148°
2026-05-07 15:12 50.78402 8.13019 30225 ft 450 kts 149°
2026-05-07 15:12 50.75723 8.15565 31145 ft 447 kts 149°
2026-05-07 15:12 50.73074 8.18114 32037 ft 445 kts 149°
2026-05-07 15:12 50.70435 8.20695 32857 ft 445 kts 148°
2026-05-07 15:13 50.67812 8.23296 33627 ft 446 kts 148°
2026-05-07 15:13 50.65190 8.25915 34306 ft 447 kts 148°
2026-05-07 15:13 50.62544 8.28564 34600 ft 456 kts 148°
2026-05-07 15:13 50.59877 8.31238 34860 ft 459 kts 148°
2026-05-07 15:14 50.57173 8.33946 34970 ft 460 kts 148°
2026-05-07 15:14 50.54481 8.36635 34997 ft 458 kts 148°
2026-05-07 15:14 50.49127 8.41967 35042 ft 454 kts 148°
2026-05-07 15:15 50.43776 8.47280 35050 ft 454 kts 148°
2026-05-07 15:15 50.38460 8.52544 35054 ft 455 kts 149°
2026-05-07 15:16 50.32916 8.57378 35045 ft 456 kts 153°
2026-05-07 15:16 50.27308 8.62020 35050 ft 456 kts 153°
2026-05-07 15:17 50.21693 8.66690 35051 ft 457 kts 153°
2026-05-07 15:17 50.16092 8.71363 35053 ft 457 kts 153°
2026-05-07 15:18 50.10478 8.76034 35048 ft 457 kts 153°
2026-05-07 15:18 50.05056 8.81080 35046 ft 457 kts 145°
2026-05-07 15:19 50.00226 8.87555 35062 ft 458 kts 138°
2026-05-07 15:19 49.95537 8.94278 35048 ft 458 kts 138°
2026-05-07 15:20 49.90836 9.00947 35052 ft 458 kts 139°
2026-05-07 15:20 49.86126 9.07562 35048 ft 458 kts 139°
2026-05-07 15:21 49.81395 9.14176 35041 ft 459 kts 139°
2026-05-07 15:21 49.76640 9.20807 35053 ft 459 kts 139°
2026-05-07 15:22 49.71913 9.27385 35045 ft 460 kts 139°
2026-05-07 15:22 49.67149 9.33997 35045 ft 460 kts 139°
2026-05-07 15:23 49.62382 9.40610 35058 ft 460 kts 138°
2026-05-07 15:23 49.58043 9.47879 35048 ft 461 kts 132°
2026-05-07 15:24 49.53884 9.55324 35045 ft 461 kts 132°
2026-05-07 15:24 49.49673 9.62773 35050 ft 461 kts 132°
2026-05-07 15:25 49.45447 9.70185 35053 ft 460 kts 133°
2026-05-07 15:25 49.41211 9.77593 35051 ft 461 kts 133°
2026-05-07 15:26 49.36966 9.84982 35042 ft 461 kts 133°
2026-05-07 15:26 49.32714 9.92273 35043 ft 460 kts 133°
2026-05-07 15:27 49.28433 9.99578 35045 ft 460 kts 133°
2026-05-07 15:27 49.24151 10.06888 35047 ft 459 kts 133°
2026-05-07 15:28 49.22038 10.10492 34856 ft 452 kts 133°
2026-05-07 15:28 49.19955 10.14036 34562 ft 444 kts 133°
2026-05-07 15:28 49.17939 10.17495 34184 ft 428 kts 133°
2026-05-07 15:28 49.15992 10.20865 33387 ft 420 kts 133°
2026-05-07 15:29 49.14091 10.24153 32466 ft 417 kts 133°
2026-05-07 15:29 49.12133 10.27406 31541 ft 413 kts 135°
2026-05-07 15:29 49.10179 10.30535 31067 ft 400 kts 135°
2026-05-07 15:29 49.08289 10.33543 30641 ft 386 kts 135°
2026-05-07 15:30 49.06459 10.36459 30252 ft 374 kts 135°
2026-05-07 15:30 49.04677 10.39312 29835 ft 370 kts 135°
2026-05-07 15:30 49.02884 10.42183 29468 ft 378 kts 135°
2026-05-07 15:30 49.01041 10.45145 29052 ft 393 kts 135°
2026-05-07 15:31 48.99129 10.48187 28613 ft 398 kts 135°
2026-05-07 15:31 48.97228 10.51169 28203 ft 395 kts 136°
2026-05-07 15:31 48.95319 10.54151 27794 ft 391 kts 136°
2026-05-07 15:31 48.93433 10.57121 27376 ft 388 kts 135°
2026-05-07 15:32 48.91576 10.60085 26977 ft 385 kts 135°
2026-05-07 15:32 48.89734 10.63037 26574 ft 383 kts 135°
2026-05-07 15:32 48.87896 10.65978 26171 ft 381 kts 135°
2026-05-07 15:32 48.86072 10.68891 25799 ft 379 kts 135°
2026-05-07 15:33 48.84274 10.71755 25405 ft 378 kts 135°
2026-05-07 15:33 48.82460 10.74638 25017 ft 376 kts 135°
2026-05-07 15:33 48.80651 10.77507 24633 ft 375 kts 135°
2026-05-07 15:33 48.78840 10.80349 24248 ft 373 kts 136°
2026-05-07 15:34 48.77070 10.83152 24242 ft 363 kts 135°
2026-05-07 15:34 48.75320 10.85946 24240 ft 370 kts 135°
2026-05-07 15:34 48.73526 10.88812 24239 ft 378 kts 135°
2026-05-07 15:34 48.71714 10.91704 24211 ft 376 kts 135°
2026-05-07 15:35 48.69934 10.94544 23762 ft 380 kts 135°
2026-05-07 15:35 48.68089 10.97478 23100 ft 385 kts 135°
2026-05-07 15:35 48.66243 11.00412 22655 ft 383 kts 135°
2026-05-07 15:35 48.64410 11.03322 22222 ft 379 kts 135°
2026-05-07 15:36 48.62598 11.06194 21828 ft 376 kts 135°
2026-05-07 15:36 48.60795 11.09050 21439 ft 373 kts 135°
2026-05-07 15:36 48.59005 11.11881 21045 ft 369 kts 135°
2026-05-07 15:36 48.57258 11.14640 20665 ft 366 kts 135°
2026-05-07 15:37 48.55502 11.17411 20288 ft 363 kts 136°
2026-05-07 15:37 48.53759 11.20158 19903 ft 361 kts 136°
2026-05-07 15:37 48.52027 11.22884 19529 ft 360 kts 135°
2026-05-07 15:37 48.50295 11.25605 19136 ft 358 kts 136°
2026-05-07 15:38 48.49152 11.27401 18879 ft 356 kts 136°
2026-05-07 15:38 48.47439 11.30090 18509 ft 354 kts 135°
2026-05-07 15:38 48.45738 11.32756 18116 ft 352 kts 136°
2026-05-07 15:38 48.44049 11.35403 17689 ft 349 kts 136°
2026-05-07 15:39 48.42375 11.38025 17300 ft 345 kts 136°
2026-05-07 15:39 48.40726 11.40605 17069 ft 336 kts 136°
2026-05-07 15:39 48.39130 11.43098 17020 ft 326 kts 136°
2026-05-07 15:39 48.37550 11.45563 17029 ft 329 kts 136°
2026-05-07 15:40 48.35940 11.48071 17040 ft 337 kts 136°
2026-05-07 15:40 48.34305 11.50615 17030 ft 339 kts 136°
2026-05-07 15:40 48.32679 11.53146 17006 ft 336 kts 136°
2026-05-07 15:40 48.31081 11.55634 16738 ft 333 kts 136°
2026-05-07 15:41 48.29480 11.58122 16386 ft 329 kts 136°
2026-05-07 15:41 48.27890 11.60588 15946 ft 328 kts 136°
2026-05-07 15:41 48.26312 11.63050 15505 ft 325 kts 134°
2026-05-07 15:41 48.25158 11.65880 14914 ft 326 kts 109°
2026-05-07 15:42 48.24846 11.69188 14058 ft 319 kts 86°
2026-05-07 15:42 48.25082 11.72492 13032 ft 318 kts 83°
2026-05-07 15:42 48.25350 11.75775 12268 ft 318 kts 83°
2026-05-07 15:42 48.25614 11.78986 11984 ft 312 kts 83°
2026-05-07 15:43 48.25871 11.82154 11657 ft 308 kts 83°
2026-05-07 15:43 48.26127 11.85359 11330 ft 303 kts 83°
2026-05-07 15:43 48.26371 11.88477 11010 ft 299 kts 83°
2026-05-07 15:43 48.26606 11.91513 10687 ft 295 kts 84°
2026-05-07 15:44 48.26839 11.94561 10296 ft 294 kts 84°
2026-05-07 15:44 48.27070 11.97612 9882 ft 294 kts 84°
2026-05-07 15:44 48.27299 12.00660 9488 ft 288 kts 84°
2026-05-07 15:44 48.27520 12.03588 8727 ft 279 kts 83°
2026-05-07 15:45 48.27737 12.06478 7832 ft 278 kts 83°
2026-05-07 15:45 48.27953 12.09392 7056 ft 284 kts 83°
2026-05-07 15:45 48.28169 12.12330 6719 ft 281 kts 83°
2026-05-07 15:45 48.28383 12.15223 6395 ft 277 kts 83°
2026-05-07 15:46 48.30056 12.20077 5425 ft 265 kts 30°
2026-05-07 15:46 48.31707 12.21000 5158 ft 254 kts
2026-05-07 15:46 48.33437 12.20986 5076 ft 247 kts 355°
2026-05-07 15:47 48.35101 12.20578 5009 ft 240 kts 335°
2026-05-07 15:47 48.36373 12.19056 5002 ft 234 kts 302°
2026-05-07 15:47 48.36879 12.16758 4996 ft 233 kts 273°
2026-05-07 15:47 48.36909 12.14357 4993 ft 227 kts 271°
2026-05-07 15:48 48.36860 12.11986 4994 ft 227 kts 267°
2026-05-07 15:48 48.36717 12.09655 5002 ft 218 kts 265°
2026-05-07 15:48 48.36551 12.07457 5021 ft 205 kts 264°
2026-05-07 15:48 48.36382 12.05285 4758 ft 212 kts 265°
2026-05-07 15:49 48.36213 12.03098 4493 ft 208 kts 265°
2026-05-07 15:49 48.36050 12.00968 4207 ft 203 kts 265°
2026-05-07 15:49 48.35893 11.98899 3930 ft 201 kts 265°
2026-05-07 15:49 48.35730 11.96819 3653 ft 198 kts 265°
2026-05-07 15:50 48.35580 11.94861 3430 ft 176 kts 266°
2026-05-07 15:50 48.35446 11.93112 3172 ft 161 kts 266°
2026-05-07 15:50 48.35324 11.91509 2964 ft 146 kts 266°
2026-05-07 15:50 48.35215 11.90071 2797 ft 136 kts 266°
2026-05-07 15:51 48.35106 11.88635 2601 ft 141 kts 265°
2026-05-07 15:51 48.34991 11.87160 2413 ft 141 kts 266°
2026-05-07 15:51 48.34877 11.85709 2193 ft 139 kts 269°
2026-05-07 15:51 48.34769 11.84225 2000 ft 146 kts 268°
2026-05-07 15:52 48.34655 11.82693 1806 ft 147 kts 266°
2026-05-07 15:52 48.34526 11.81178 1636 ft 144 kts 268°
2026-05-07 15:52 48.34421 11.79700 1478 ft 136 kts 266°
2026-05-07 15:52 48.34330 11.78502 1481 ft 90 kts 263°
2026-05-07 15:53 48.34278 11.77827 1477 ft 50 kts 263°
2026-05-07 15:53 48.34251 11.77329 1477 ft 43 kts 277°
2026-05-07 15:53 48.34327 11.77020 1479 ft 20 kts 293°
2026-05-07 15:53 48.34353 11.76931 1474 ft 7 kts 293°
2026-05-07 15:54 48.34372 11.76863 1482 ft 8 kts 294°
2026-05-07 15:54 48.34396 11.76784 1478 ft 9 kts 295°
2026-05-07 15:54 48.34438 11.76712 1479 ft 10 kts 335°
2026-05-07 15:54 48.34509 11.76693 1477 ft 11 kts 352°
2026-05-07 15:55 48.34586 11.76681 1479 ft 12 kts 353°
2026-05-07 15:55 48.34670 11.76666 1485 ft 13 kts 353°
2026-05-07 15:55 48.34745 11.76711 1474 ft 13 kts 64°
2026-05-07 15:55 48.34761 11.76849 1490 ft 14 kts 83°
2026-05-07 15:56 48.34773 11.76998 1481 ft 14 kts 83°
2026-05-07 15:56 48.34784 11.77136 1476 ft 8 kts 83°
2026-05-07 15:56 48.34791 11.77228 1482 ft 10 kts 83°
2026-05-07 15:56 48.34796 11.77269 1479 ft 4 kts 68°
2026-05-07 15:57 48.34838 11.77289 1480 ft 8 kts 356°
2026-05-07 15:57 48.34872 11.77283 1476 ft 4 kts 354°
2026-05-07 15:57 48.34888 11.77281 1481 ft 1 kts 353°
2026-05-07 15:57 48.34889 11.77281 1490 ft 0 kts 353°